Retour au catalogue

SL-8 R/B

ActifPO
NORAD 11681·ROCKET BODY·🇷🇺 Russia

Lancé Jan 25, 1980 depuis Plesetsk Cosmodrome

Loading…

Prochains Passages (prochaines 24 heures)

TLE

FraisSource: Space-Track

Époque: Sep 14, 2026, 09:35 UTC

1 11681U 80007B   26257.39962480  .00000116  00000-0  10454-3 0  9990
2 11681  82.9278  67.1279 0034843 285.6249  93.4868 13.75742615336512

Suivez SL-8 R/B en temps réel avec AllMySat

Download on the App Store